Location: Dresden
(51.0483°N, 13.7137°E)
Time: 17:54:11
(UTC+02:00)

ELECTRON R/B - Visible Passes

Search period start: 20 May 2018 00:00
Search period end: 30 May 2018 00:00
Orbit: 285 x 480 km, 82.9° (Epoch: 19 May)

Date Brightness Start Highest point End Pass type
(mag) Time Alt. Az. Time Alt. Az. Time Alt. Az.
20 May 6.3 22:26:10 10° NNW 22:28:19 26° W 22:30:26 10° SSW visible
22 May 6.1 22:06:12 10° NNW 22:08:26 30° W 22:10:38 10° SSW visible
24 May 5.8 21:45:56 10° NNW 21:48:14 36° W 21:50:31 10° SSW visible
27 May 7.7 22:02:59 10° WNW 22:03:34 11° W 22:04:08 10° W visible
